This is the latest recevied weather packets stored in our database for station/object PA1CD-13. If no packets are shown the sender has not sent any weather packets the latest 10 day(s).
| Time | Temp. | Humidity | Pressure | Rain* | Wind** | Luminosity | Snow |
|---|---|---|---|---|---|---|---|
| 1777620482 | 16.11° C | 53% | 1025.4 hPa | 0 mm | - | 440 W/m² | - |
| 1777620363 | 15.56° C | 54% | 1025.4 hPa | 0 mm | - | 436 W/m² | - |
| 1777620243 | 15.56° C | 54% | 1025.2 hPa | 0 mm | - | 434 W/m² | - |
| 1777620122 | 15.56° C | 56% | 1025.3 hPa | 0 mm | - | 427 W/m² | - |
| 1777620004 | 15.56° C | 56% | 1025.4 hPa | 0 mm | - | 420 W/m² | - |
| 1777619882 | 15.56° C | 56% | 1025.3 hPa | 0 mm | - | 415 W/m² | - |
| 1777619763 | 15.56° C | 56% | 1025.3 hPa | 0 mm | - | 410 W/m² | - |
| 1777619642 | 15.56° C | 56% | 1025.4 hPa | 0 mm | - | 408 W/m² | - |
| 1777619522 | 15.56° C | 57% | 1025.4 hPa | 0 mm | - | 401 W/m² | - |
| 1777619402 | 15° C | 57% | 1025.5 hPa | 0 mm | - | 397 W/m² | - |
| 1777619283 | 15° C | 57% | 1025.4 hPa | 0 mm | - | 389 W/m² | - |
| 1777619163 | 15° C | 59% | 1025.4 hPa | 0 mm | - | 383 W/m² | - |
| 1777619042 | 15° C | 59% | 1025.4 hPa | 0 mm | - | 382 W/m² | - |
| 1777618922 | 15° C | 59% | 1025.4 hPa | 0 mm | - | 378 W/m² | - |
| 1777618805 | 14.44° C | 60% | 1025.5 hPa | 0 mm | - | 368 W/m² | - |
| 1777618682 | 14.44° C | 61% | 1025.5 hPa | 0 mm | - | 364 W/m² | - |
| 1777618563 | 14.44° C | 61% | 1025.5 hPa | 0 mm | - | 357 W/m² | - |
| 1777618445 | 14.44° C | 61% | 1025.5 hPa | 0 mm | - | 355 W/m² | - |
| 1777618325 | 14.44° C | 61% | 1025.5 hPa | 0 mm | - | 350 W/m² | - |
| 1777618204 | 14.44° C | 61% | 1025.4 hPa | 0 mm | - | 346 W/m² | - |
| 1777618084 | 13.89° C | 62% | 1025.4 hPa | 0 mm | - | 339 W/m² | - |
| 1777617963 | 13.89° C | 62% | 1025.5 hPa | 0 mm | - | 331 W/m² | - |
| 1777617844 | 13.89° C | 62% | 1025.4 hPa | 0 mm | - | 331 W/m² | - |
| 1777617723 | 13.89° C | 63% | 1025.4 hPa | 0 mm | - | 318 W/m² | - |
| 1777617604 | 13.89° C | 63% | 1025.4 hPa | 0 mm | - | 318 W/m² | - |
* Rain latest hour (hover to see other rain measurements)
** Current wind speed in m/s (hover to see current wind gust speed)